Location: Bradford Cemetery
(32.9968°N, 86.0647°W)
Time: 00:41:18
(UTC+00:00)

Daily predictions for brighter satellites

Satellite Brightness Start Highest point End
(mag) Time Altitude Azimuth Time Altitude Azimuth Time Altitude Azimuth
USA 234 4.0 00:03:56 10° ENE 00:09:37 31° SE 00:15:16 10° S
CZ-4 R/B 4.4 00:05:59 10° SSE 00:10:04 74° ENE 00:14:10 10° N
COSMO-SKYMED 1 3.7 00:06:08 10° N 00:10:20 51° WNW 00:14:31 10° SSW
ISS -3.6 00:11:28 10° SW 00:14:49 80° NW 00:18:11 10° NE
Sich 1 Rocket 4.4 00:11:23 10° SSE 00:15:12 29° E 00:19:04 10° NNE
H-2A R/B 2.8 00:15:13 10° SE 00:19:26 29° ENE 00:23:44 10° N
Cosmos 158 Rocket 3.9 00:17:39 10° NNW 00:22:53 70° ENE 00:27:55 10° SSE
Iridium 4 Rocket 3.3 00:18:14 10° S 00:22:54 78° E 00:28:04 10° N
ARGOS 4.1 00:18:59 10° ESE 00:23:19 26° ENE 00:27:39 10° NNE
GPS 2-04 Rocket1 4.1 00:23:44 10° W 00:27:34 35° SSW 00:31:21 10° SE
SJ 16-02 3.9 00:24:57 10° SW 00:28:34 25° WNW 00:32:13 10° NNW
Cosmos 1437 3.3 00:27:06 10° NNE 00:29:47 30° E 00:32:28 10° SE
DMSP B5D1-3 4.5 00:25:29 10° NNE 00:30:35 82° ESE 00:35:41 10° S
Cosmos 1939 Rocket 4.1 00:27:56 10° S 00:31:53 47° W 00:35:53 10° NNW
Helios 1A Rocket 4.2 00:29:01 10° S 00:32:55 45° W 00:36:52 10° NNW
CZ-2C R/B 3.6 00:29:03 10° NE 00:33:37 26° E 00:38:11 10° SSE
Milstar 3 Cent rocket 3.6 00:26:53 10° SW 00:33:38 29° SSE 00:37:15 15° ESE
NOSS 2-2 (E) 3.8 00:31:24 10° SW 00:34:51 54° WNW 00:38:23 10° NNE
Okean 2 Rocket 3.9 00:31:04 10° SSE 00:34:58 30° E 00:38:53 10° NNE
SL-16 R/B 3.9 00:30:48 10° NW 00:35:53 35° WSW 00:40:55 10° SSW
CZ-2D R/B 4.2 00:34:40 10° S 00:38:26 51° W 00:42:14 10° NNW
Okean-O 3.3 00:34:31 10° S 00:38:53 59° W 00:43:15 10° NNW
ATLAS 2AS CENTAUR R/B 4.2 00:34:38 10° SE 00:38:56 16° ESE 00:40:32 15° E
Cosmos 2263 Rocket 3.2 00:33:36 10° SW 00:38:57 49° WNW 00:44:21 10° N
Cosmos 1900 4.4 00:35:23 10° NNW 00:40:35 86° ENE 00:45:43 10° SSE
HJ-1C 3.6 00:37:30 10° SSE 00:40:37 45° ENE 00:43:47 10° N
SJ-11-01 4.4 00:36:25 10° SSE 00:41:00 54° ENE 00:45:36 10° N
DELTA 2 R/B (1) 4.0 00:37:31 10° WNW 00:42:57 54° NNE 00:46:52 19° E
GOES 2 Rocket 4.1 00:39:40 10° SW 00:43:13 27° SSE 00:45:16 19° ESE
NOSS 2-2 (D) 3.6 00:39:51 10° SW 00:43:21 58° WNW 00:46:53 10° NNE
CZ-2C R/B 3.0 00:38:53 10° SSE 00:43:57 75° ENE 00:49:20 10° N
Cosmos 1844 Rocket 3.3 00:41:21 10° SSE 00:46:12 32° ESE 00:51:04 10° NE
Cosmos 1300 Rocket 3.9 00:42:56 10° SSE 00:47:00 39° E 00:51:06 10° NNE
SEDSat Delta rocket 4.5 00:46:15 10° W 00:51:01 34° SSW 00:54:18 15° SE
Ariane Rocket 3.9 00:50:37 22° ESE 00:52:30 27° ENE 00:56:45 10° NNE
YAOGAN 1 3.2 00:48:36 10° S 00:52:49 57° WSW 00:57:06 10° NNW
USA 186 3.5 00:54:52 17° NE 00:54:52 17° NE 00:56:11 10° NNE
Exosat Rocket 4.4 00:52:51 10° SSE 00:58:33 33° ESE 01:03:14 10° NE
Cosmos 1464 Rocket 3.9 00:54:21 10° S 01:00:24 67° E 01:06:29 10° NNE
Cosmos 2298 Rocket 4.0 00:56:16 10° S 01:01:28 57° ESE 01:06:41 10° NNE
Cosmos 1943 3.1 00:56:07 10° NNW 01:01:47 75° ENE 01:06:43 14° SSE
Meteor 1-12 Rocket 4.2 00:56:31 10° S 01:02:26 71° E 01:08:16 10° NNE
Okean 2 4.3 00:58:42 10° NNW 01:02:44 51° W 01:06:45 10° S
CSL-04 Debris 4.4 01:00:57 10° S 01:06:18 69° WSW 01:11:40 10° NNW
CZ-4 R/B 3.7 01:07:02 10° SSW 01:10:35 27° W 01:14:11 10° NW
CSL-04 Rocket 4.2 01:10:23 10° S 01:15:39 59° WSW 01:21:03 10° NNW
Cosmos 2151 Rocket 3.5 01:11:47 10° S 01:16:09 65° E 01:20:34 10° NNE
Cosmos 1867 3.9 01:15:14 10° NNW 01:20:26 44° ENE 01:21:23 41° E
Cosmos 1603 4.2 01:15:54 10° NNW 01:21:27 60° WSW 01:26:56 10° S
CZ-2C R/B 1.0 01:18:34 10° W 01:22:04 60° N 01:22:05 60° N
USA 102 3.8 01:22:51 85° SSW 01:22:57 86° WSW 01:29:26 10° NNW
Cosmos 1025 Rocket 3.0 01:19:31 10° N 01:23:51 56° E 01:23:51 56° E
Cosmos 2150 Rocket 4.1 01:26:08 10° SSW 01:31:27 79° WNW 01:36:53 10° NNE
DMSP B5D2-2 4.0 01:28:46 10° NNE 01:34:05 85° ESE 01:39:22 10° SSW
BREEZE-M DEB (TANK) 4.2 01:36:38 10° NNW 01:40:35 44° NE 01:42:24 38° ENE
Cosmos 1125 Rocket 3.4 01:36:18 10° SSW 01:41:35 83° ESE 01:46:55 10° NNE
SJ-6B 4.1 01:44:18 31° N 01:44:18 31° N 01:46:21 10° N
Cosmos 1707 3.8 01:42:24 10° NNW 01:46:02 43° W 01:46:33 40° WSW
Cosmos 2084 Rocket 4.3 01:41:46 10° NW 01:46:05 47° WSW 01:46:48 43° SW
Resurs 01 Rocket 4.0 01:49:34 13° NNE 01:49:34 13° NNE 01:50:04 10° NNE
ISS -0.6 01:51:23 10° NW 01:52:06 10° NNW 01:52:49 10° NNW
USA 234 3.7 01:46:20 10° NE 01:52:44 59° NW 01:59:08 10° WSW
H-2A R/B 4.1 01:54:54 10° SSW 01:58:49 24° W 02:02:48 10° NW
Nadezhda 4 Rocket 3.9 01:55:44 10° N 02:01:51 78° W 02:03:08 57° SSW
CZ-2C R/B 4.2 02:08:52 10° N 02:13:50 35° WNW 02:18:51 10° SW
ATLAS 2AS CENTAUR R/B 2.9 02:21:05 10° SSW 02:33:18 31° NNE 02:36:57 10° NNE
CENTAUR R/B 3.5 02:40:26 10° NNW 02:47:17 57° NNE 02:47:17 57° NNE
USA 238 DEB 4.4 02:49:58 10° NNW 02:55:26 54° NW 02:55:26 54° NW
USA 238 4.4 02:50:04 10° NNW 02:55:31 53° NW 02:55:31 53° NW
IDEFIX/ARIANE 42P 4.2 08:34:15 10° NNE 08:36:52 30° NNE 08:36:52 30° NNE
H-2A R/B 4.1 08:57:54 10° SE 09:01:31 27° ENE 09:05:12 10° NNE
BREEZE-M DEB (TANK) 3.8 09:13:55 55° WSW 09:16:04 81° NW 09:20:25 10° NE
Cosmos 1697 Rocket 4.4 09:19:35 20° NNW 09:19:35 20° NNW 09:21:53 10° N
SL-4 R/B 3.3 09:19:51 40° ESE 09:19:51 40° ESE 09:24:03 10° ENE
CZ-2C R/B 3.4 09:15:13 10° NNE 09:20:11 47° E 09:23:04 24° SSE
Cosmos 1980 Rocket 2.9 09:22:31 41° NNW 09:22:31 41° NNW 09:26:44 10° N
Cosmos 1339 Rocket 4.4 09:22:54 42° S 09:25:15 88° E 09:31:32 10° N
PAYLOAD A 4.1 09:21:13 10° NNE 09:25:52 62° E 09:26:52 49° SSE
Cosmos 2322 Rocket 3.5 09:22:33 14° SSE 09:26:56 37° ESE 09:32:07 10° NE
Landsat 5 4.2 09:22:56 10° SSE 09:27:20 57° ENE 09:31:46 10° N
SL-16 R/B 2.7 09:31:25 24° S 09:34:41 57° ESE 09:40:14 10° NNE
Cosmos 2263 Rocket 3.8 09:31:25 10° N 09:36:35 35° ENE 09:41:43 10° SE
Chandra Rocket (1) 4.2 09:31:38 32° W 09:39:10 59° SSW 09:45:01 10° ESE
Meteor 1-14 Rocket 4.0 09:36:55 10° NNW 09:42:28 70° W 09:47:56 10° S
NOSS 3-3 (A) 4.0 09:45:00 46° W 09:45:51 50° NW 09:51:52 10° NNE
NOSS 3-3 (C) 3.9 09:45:10 46° W 09:45:59 50° NW 09:51:57 10° NNE
CSL-04 DEB 4.4 09:44:22 10° SSE 09:48:36 83° WSW 09:52:57 10° NNW
Lacrosse 5 4.0 09:48:47 12° NW 09:48:57 13° NNW 09:51:07 10° N
Meteor 2-6 Rocket 4.1 09:48:56 37° SSW 09:51:04 63° W 09:56:45 10° N
OE (NEXTSAT) 4.4 09:51:28 70° NNE 09:51:30 70° NE 09:54:56 10° ESE
Cosmos 1238 Rocket 3.9 09:45:19 10° NNW 09:51:42 58° W 09:57:24 10° SSW
Cosmos 1707 Rocket 4.0 09:49:57 10° S 09:54:12 62° E 09:58:29 10° NNE
Cosmos 921 Rocket 3.6 09:55:09 37° NW 09:55:09 37° NW 09:58:20 10° N
IRIDIUM 104 4.3 09:52:26 10° N 09:57:41 89° E 10:02:53 10° S
Meteor 1-5 Rocket 4.1 09:54:29 10° N 09:59:50 86° E 10:05:17 10° S
Cosmos 2228 Rocket 4.0 10:01:20 30° NW 10:01:20 30° NW 10:04:21 10° NNW
IRIDIUM 114 4.2 10:01:36 10° N 10:06:49 74° W 10:11:59 10° S
Meteor 1-4 Rocket 2.6 10:09:30 46° WNW 10:09:30 46° WNW 10:12:46 10° N
USA 32 4.3 10:05:59 10° N 10:11:14 73° E 10:16:27 10° S
X-37B 3.5 10:11:49 10° N 10:12:18 10° N 10:12:49 10° NNE
Skynet4D Del rocket 4.2 10:09:50 28° WSW 10:12:26 47° S 10:18:22 10° ESE
ADEOS 3.5 10:09:32 10° NNE 10:14:47 90° WNW 10:19:59 10° SSW
IRIDIUM 103 4.3 10:10:48 10° N 10:15:55 59° W 10:21:01 10° SSW
Cosmos 1536 3.8 10:13:52 10° N 10:17:50 50° E 10:21:47 10° SSE
IDEFIX/ARIANE 42P 4.5 10:16:08 10° NW 10:17:40 13° NW 10:17:40 13° NW
ADEOS Rocket 3.3 10:11:18 10° SSE 10:18:30 89° W 10:24:58 10° NNW
DELTA 4 R/B 4.1 10:09:17 20° W 10:19:36 47° SSW 10:24:17 10° SE
USA 234 3.2 10:14:02 10° SE 10:20:32 74° SW 10:27:05 10° NW
Cosmos 1484 Rocket 2.9 10:17:21 10° NNE 10:21:21 82° ESE 10:25:21 10° S
Cosmos 1869 Rocket 3.8 10:20:37 10° NNW 10:24:45 45° W 10:28:51 10° SSW
ALOS 2.3 10:20:26 10° NNE 10:25:07 84° ESE 10:29:46 10° S
Meteor 1-11 Rocket 3.7 10:21:07 10° N 10:26:54 85° W 10:32:30 10° S
Cosmos 1814 Rocket 4.4 10:22:47 10° S 10:27:52 64° ESE 10:33:02 10° NNE
Cosmos 1862 Rocket 3.8 10:23:40 10° S 10:28:03 71° E 10:32:24 10° N
ERS-2 2.4 10:25:01 10° S 10:28:28 41° W 10:31:56 10° NNW
Cosmos 1153 Rocket 4.5 10:22:18 10° NNW 10:28:38 67° W 10:34:50 10° S
Cosmos 1437 Rocket 4.4 10:26:13 10° SSE 10:29:40 36° E 10:33:10 10° NNE
Meteor 1-31 Rocket 2.7 10:28:21 10° NNE 10:32:11 89° WSW 10:36:01 10° SSW
FALCON 9 DEB 4.0 10:31:12 24° W 10:32:36 34° NW 10:35:46 10° NNE
Cosmos 841 Rocket 3.4 10:27:50 10° SSW 10:33:01 86° WNW 10:38:16 10° NNE
Meteor 1-27 Rocket 3.9 10:27:34 10° SSW 10:33:22 56° W 10:39:12 10° N
H-2A R/B 3.3 10:34:09 10° SW 10:37:24 21° W 10:40:43 10° NW
SJ 16-02 1.5 10:35:38 10° NNW 10:39:50 47° WSW 10:44:02 10° S
Cosmos 1763 Rocket 4.3 10:38:57 11° SW 10:43:30 33° WNW 10:48:16 10° N
Cosmos 1000 Rocket 4.5 10:37:56 10° SSW 10:44:05 67° W 10:50:14 10° N
Cosmos 1570 Rocket 4.0 10:40:27 10° SSW 10:45:41 67° WNW 10:51:01 10° N
Cosmos 2360 Rocket 2.2 10:49:32 10° SSW 10:55:10 67° WNW 11:00:49 10° NNE
CZ-4B R/B 2.1 10:54:19 10° SSW 10:57:01 28° W 10:59:48 10° NW
CZ-2C R/B 4.0 10:54:41 10° NNW 10:57:58 17° WNW 11:01:16 10° WSW
SJ-12 3.9 10:53:51 10° N 10:57:58 73° WNW 11:02:05 10° SSW
SL-4 R/B 3.4 10:55:28 10° W 10:59:27 30° NW 11:03:41 10° NNE
Meteor 2-20 4.5 10:53:56 10° SSW 11:00:00 63° W 11:06:05 10° N
COSMO-SKYMED 1 3.0 10:56:19 10° SSE 11:00:36 70° ENE 11:04:55 10° N
Cosmos 1725 Rocket 4.4 10:58:57 10° N 11:05:08 73° E 11:11:17 10° SSE
Cosmos 1666 3.8 11:02:24 10° NW 11:05:24 22° W 11:08:22 10° SW
DEBRIS 3.7 11:05:26 10° NW 11:08:39 87° NE 11:19:15 10° SE
Cosmos 1544 4.2 11:05:39 10° N 11:09:08 49° E 11:12:36 10° SSE
Cosmos 2100 Rocket 4.3 11:04:11 10° NNW 11:10:18 49° W 11:16:21 10° SSW
Cosmos 2322 Rocket 3.3 11:06:25 10° WSW 11:11:00 25° WNW 11:15:38 10° N
Cosmos 1802 Rocket 4.0 11:06:57 10° NNW 11:13:03 64° W 11:19:15 10° S
